Simultaneous Nadir Overpasses (SNOs) Predictions

Prediction of SNOs between GOES-15 and METOP-A Satellite Orbit:

Table of predicted SNOs for the next 14.0 days since TLE Epoch: 2/28/2020
Index Date Time (GOES-15) GOES-15 Lat,Lon METOP-A Lat,Lon Distance(km) Time Diff (sec)
1 03/02/2020 05:19:30 -0.11,-128.43 -0.01,-128.07 41.77 80
2 03/03/2020 17:41:01 0.15,-128.46 1.08,-132.65 478.01 80
3 03/04/2020 17:17:43 0.12,-128.45 -0.08,-127.68 87.83 80
4 03/06/2020 05:39:22 -0.16,-128.40 -1.03,-132.29 443.74 80
5 03/07/2020 05:16:04 -0.13,-128.39 0.12,-127.32 121.84 80
6 03/08/2020 17:37:35 0.17,-128.40 0.94,-131.90 398.89 80
7 03/09/2020 17:14:16 0.15,-128.39 -0.15,-126.92 166.53 80
8 03/11/2020 05:35:56 -0.18,-128.33 -0.90,-131.54 365.76 80
9 03/12/2020 05:12:37 -0.16,-128.32 0.26,-126.57 199.46 80
10 03/13/2020 17:34:09 0.19,-128.33 0.81,-131.15 322.06 80




NCC Satellite Simultaneous Nadir Overpasses (SNOs) Prediction Service
